Tracking 31027 objects as of 19-Jul-2025
HD Live streaming from Space Station
objects crossing your sky now

FENGYUN 1C DEB

Track FENGYUN 1C DEB now!
10-day predictions


NORAD ID: 37415
Int'l Code: 1999-025EGH
Perigee: 860.6 km
Apogee: 1,283.8 km
Inclination: 99.0 °
Period: 106.5 minutes
Semi major axis: 7443 km
RCS: 0.0105 m2 (small)
Launch date: May 10, 1999
Source: People's Republic of China (PRC)
Launch site: Taiyaun Space Center, China (TSC)

Note: This is SATELLITE DEBRIS
Your satellite tracking list
OBJECT A
Track 1 satellite(s)




NASA's NSSDC Master Catalog

Two Line Element Set (TLE):
1 37415U 99025EGH 25186.11480063  .00000344  00000-0  45357-3 0  9998
2 37415  98.9678 309.0595 0284296 232.2129 125.2953 13.51960562601510
Source of the keplerian elements: AFSPC